Location: Black Forest
(43.4794°N, 75.0081°W)
Time: 12:24:45
(UTC-04:00)

ISS - Visible Passes

Search period start: 30 May 2016 00:00
Search period end: 09 June 2016 00:00
Orbit: 402 x 404 km, 51.6° (Epoch: 30 May)

Date Brightness Start Highest point End Pass type
(mag) Time Alt. Az. Time Alt. Az. Time Alt. Az.
30 May -0.8 01:19:43 10° NW 01:22:26 23° NNE 01:25:09 10° ENE visible
30 May -3.4 02:55:58 10° WNW 02:59:14 84° NNE 03:02:30 10° ESE visible
30 May -1.5 04:33:42 10° WSW 04:35:15 13° SW 04:36:48 10° SSW visible
30 May -3.3 21:12:10 10° WSW 21:15:26 84° NNW 21:18:43 10° ENE visible
30 May -0.8 22:49:31 10° WNW 22:52:14 23° NNW 22:54:57 10° NE visible
31 May -0.6 00:26:56 10° NW 00:29:28 20° N 00:31:59 10° ENE visible
31 May -2.3 02:03:15 10° NW 02:06:00 45° N 02:06:00 45° N visible
31 May -1.2 21:56:21 10° W 21:59:17 30° NNW 22:02:14 10° NE visible
31 May -0.5 23:34:00 10° NW 23:36:27 19° N 23:38:53 10° NE visible
01 Jun -1.6 01:10:34 10° NW 01:13:34 33° NNE 01:13:35 33° NNE visible
01 Jun -1.9 21:03:15 10° W 21:06:23 43° NNW 21:09:32 10° NE visible
01 Jun -0.5 22:40:56 10° NW 22:43:25 20° N 22:45:54 10° NE visible
02 Jun -1.1 00:17:51 10° NW 00:20:37 25° NNE 00:21:53 20° NE visible
02 Jun -0.6 01:54:06 10° WNW 01:54:28 13° WNW 01:54:28 13° WNW visible
02 Jun -0.7 21:47:45 10° WNW 21:50:24 22° NNW 21:53:03 10° NE visible
02 Jun -0.8 23:25:03 10° NW 23:27:37 21° N 23:30:12 10° ENE visible
03 Jun -1.4 01:01:20 10° NW 01:03:01 27° NW 01:03:01 27° NW visible
03 Jun -0.6 22:32:07 10° NW 22:34:34 19° N 22:37:02 10° NE visible
04 Jun -1.9 00:08:36 10° NW 00:11:40 36° NNE 00:11:41 36° NNE visible
04 Jun -0.6 21:39:03 10° NW 21:41:30 19° N 21:43:58 10° NE visible
04 Jun -1.3 23:15:51 10° NW 23:18:42 27° NNE 23:20:25 17° ENE visible
05 Jun -0.9 00:52:07 10° WNW 00:53:00 17° WNW 00:53:00 17° WNW visible
05 Jun -1.0 22:23:02 10° NW 22:25:40 22° N 22:28:17 10° ENE visible
05 Jun -2.4 23:59:17 10° NW 00:01:47 46° NNW 00:01:47 46° NNW visible
06 Jun -0.8 21:30:07 10° NW 21:32:35 19° N 21:35:04 10° NE visible
06 Jun -2.2 23:06:30 10° NW 23:09:38 41° NNE 23:10:37 31° ENE visible
07 Jun -0.4 00:43:05 10° WNW 00:43:12 11° WNW 00:43:12 11° WNW visible
07 Jun -1.6 22:13:44 10° NW 22:16:39 29° NNE 22:19:27 11° E visible
07 Jun -2.0 23:50:01 10° WNW 23:52:03 33° W 23:52:03 33° W visible
08 Jun -1.2 21:20:54 10° NW 21:23:35 23° NNE 21:26:16 10° ENE visible
08 Jun -3.3 22:57:08 10° NW 23:00:24 78° NNE 23:00:56 59° ESE visible
